Alma, MI

6:57 PM EDT on July 16, 2019 (GMT -0400)
Gratiot Community

Weather History for KAMN - May, 2019

Change the Weather History Date:

Tuesday, May 21, 2019

  Actual Average Record
Temperature  
Mean Temperature 50 °F -  
Max Temperature 65 °F 72 °F 93 °F (1977)
Min Temperature 36 °F 45 °F 31 °F (1969)
Degree Days  
Heating Degree Days 14    
Moisture  
Dew Point 38 °F    
Average Humidity 62    
Maximum Humidity 95    
Minimum Humidity 34    
Precipitation  
Precipitation 0.00 in - - ()
Sea Level Pressure  
Sea Level Pressure 30.17 in    
Wind  
Wind Speed 5 mph (ENE)    
Max Wind Speed 15 mph    
Max Gust Speed 20 mph    
Visibility 10 miles    
Events      
Averages and records for this station are not official NWS values.
T = Trace of Precipitation, MM = Missing Value Source: NWS Daily Summary

Daily Weather History Graph

Daily Weather History Graph

Search for Another Location

Airport or City:

Astronomy

May. 21, 2019 Rise Set
Actual Time 6:09 AM EDT 9:02 PM EDT
Civil Twilight 5:35 AM EDT 9:35 PM EDT
Nautical Twilight 4:53 AM EDT 10:18 PM EDT
Astronomical Twilight 4:03 AM EDT 11:08 PM EDT
Moon 11:58 PM EDT (5/21) 8:23 AM EDT (5/21)
Length of Visible Light 16h 00m
Length of Day
14h 53m
Waning Gibbous, 91% of the Moon is Illuminated
May 21
Waning Gibbous
May 26
Last Quarter
Jun 3
New
Jun 10
First Quarter
Jun 17
Full

Hourly Weather History & Observations

Time (EDT) Temp. Windchill Dew Point Humidity Pressure Visibility Wind Dir Wind Speed Gust Speed Precip Events Conditions
12:15 AM 43.9 °F 42.3 °F 36.3 °F 75% 30.16 in 10.0 mi WNW 3.5 mph - N/A   Clear
12:35 AM 42.4 °F 40.7 °F 35.8 °F 77% 30.15 in 10.0 mi NW 3.5 mph - N/A   Clear
12:55 AM 41.4 °F - 36.1 °F 82% 30.14 in 10.0 mi Calm Calm - N/A   Clear
12:56 AM 41.4 °F - 36.1 °F 82% 30.14 in 10.0 mi Calm Calm - N/A   Clear
1:15 AM 42.8 °F 41.1 °F 36.5 °F 78% 30.15 in 10.0 mi NNW 3.5 mph - N/A   Clear
1:35 AM 41.4 °F 39.4 °F 35.8 °F 81% 30.15 in 10.0 mi NNW 3.5 mph - N/A   Clear
1:36 AM 41.4 °F 39.4 °F 36.0 °F 81% 30.15 in 10.0 mi NNW 3.5 mph - N/A   Clear
1:55 AM 41.2 °F - 37.2 °F 86% 30.16 in 10.0 mi Calm Calm - N/A   Clear
1:56 AM 41.2 °F - 37.2 °F 86% 30.16 in 10.0 mi Calm Calm - N/A   Clear
2:15 AM 39.6 °F 37.4 °F 36.5 °F 89% 30.15 in 10.0 mi NNW 3.5 mph - N/A   Clear
2:35 AM 39.0 °F - 36.5 °F 91% 30.15 in 10.0 mi Calm Calm - N/A   Clear
2:55 AM 39.0 °F - 36.7 °F 91% 30.15 in 10.0 mi Calm Calm - N/A   Clear
3:15 AM 38.7 °F - 36.5 °F 92% 30.15 in 10.0 mi Calm Calm - N/A   Clear
3:35 AM 38.3 °F - 36.5 °F 93% 30.16 in 10.0 mi Calm Calm - N/A   Clear
3:55 AM 38.3 °F - 36.5 °F 93% 30.18 in 10.0 mi Calm Calm - N/A   Clear
3:56 AM 38.1 °F - 36.5 °F 94% 30.18 in 10.0 mi Calm Calm - N/A   Clear
4:15 AM 37.0 °F - 35.6 °F 95% 30.18 in 10.0 mi Calm Calm - N/A   Clear
4:16 AM 37.0 °F - 35.4 °F 94% 30.18 in 10.0 mi Calm Calm - N/A   Clear
4:35 AM 38.1 °F - 36.9 °F 95% 30.18 in 10.0 mi Calm Calm - N/A   Clear
4:36 AM 38.1 °F - 36.9 °F 95% 30.18 in 10.0 mi Calm Calm - N/A   Clear
4:55 AM 37.2 °F - 35.6 °F 94% 30.18 in 10.0 mi Calm Calm - N/A   Clear
5:15 AM 37.2 °F - 35.6 °F 94% 30.18 in 10.0 mi Calm Calm - N/A   Clear
5:35 AM 36.9 °F - 35.6 °F 95% 30.17 in 10.0 mi Calm Calm - N/A   Clear
5:55 AM 37.0 °F - 35.6 °F 95% 30.18 in 10.0 mi Calm Calm - N/A   Clear
6:15 AM 36.9 °F - 35.4 °F 95% 30.18 in 7.0 mi Calm Calm - N/A   Clear
6:16 AM 36.7 °F - 35.2 °F 95% 30.19 in 7.0 mi Calm Calm - N/A   Clear
6:35 AM 37.8 °F - 36.5 °F 95% 30.19 in 7.0 mi Calm Calm - N/A   Clear
6:55 AM 37.8 °F - 36.5 °F 95% 30.19 in 10.0 mi Calm Calm - N/A   Clear
6:56 AM 37.8 °F - 36.5 °F 95% 30.19 in 10.0 mi Calm Calm - N/A   Clear
7:15 AM 39.6 °F - 38.3 °F 95% 30.19 in 10.0 mi Calm Calm - N/A   Clear
7:16 AM 39.6 °F - 38.3 °F 95% 30.19 in 10.0 mi Calm Calm - N/A   Clear
7:35 AM 43.0 °F 41.3 °F 41.5 °F 95% 30.19 in 10.0 mi North 3.5 mph - N/A   Clear
7:36 AM 43.2 °F 41.5 °F 41.7 °F 95% 30.19 in 10.0 mi North 3.5 mph - N/A   Clear
7:55 AM 44.6 °F - 41.4 °F 88% 30.20 in 10.0 mi Calm Calm - N/A   Clear
7:56 AM 44.8 °F - 41.4 °F 88% 30.20 in 10.0 mi Calm Calm - N/A   Clear
8:15 AM 46.0 °F 44.8 °F 40.8 °F 82% 30.21 in 10.0 mi NNE 3.5 mph - N/A   Clear
8:35 AM 47.3 °F - 40.3 °F 77% 30.22 in 10.0 mi NNE 3.5 mph - N/A   Clear
8:36 AM 47.3 °F - 40.5 °F 77% 30.22 in 10.0 mi NNE 3.5 mph - N/A   Clear
8:55 AM 48.7 °F - 40.6 °F 74% 30.21 in 10.0 mi NE 3.5 mph - N/A   Clear
9:15 AM 50.2 °F - 41.0 °F 71% 30.21 in 10.0 mi ENE 5.8 mph - N/A   Clear
9:35 AM 51.1 °F - 41.5 °F 70% 30.21 in 10.0 mi ENE 3.5 mph - N/A   Clear
9:55 AM 53.4 °F - 41.0 °F 63% 30.22 in 10.0 mi ENE 5.8 mph - N/A   Clear
9:56 AM 53.6 °F - 40.6 °F 62% 30.22 in 10.0 mi ENE 5.8 mph - N/A   Clear
10:15 AM 54.9 °F - 41.2 °F 60% 30.21 in 10.0 mi East 6.9 mph - N/A   Clear
10:16 AM 55.0 °F - 41.4 °F 60% 30.21 in 10.0 mi East 6.9 mph - N/A   Clear
10:35 AM 55.2 °F - 40.3 °F 57% 30.21 in 10.0 mi East 6.9 mph - N/A   Clear
10:36 AM 55.2 °F - 40.5 °F 58% 30.21 in 10.0 mi East 6.9 mph - N/A   Clear
10:55 AM 57.6 °F - 41.0 °F 54% 30.21 in 10.0 mi ENE 4.6 mph - N/A   Clear
10:56 AM 57.6 °F - 41.4 °F 55% 30.21 in 10.0 mi ENE 6.9 mph - N/A   Clear
11:15 AM 58.1 °F - 39.2 °F 49% 30.22 in 10.0 mi East 6.9 mph - N/A   Clear
11:16 AM 58.1 °F - 39.4 °F 50% 30.22 in 10.0 mi East 6.9 mph - N/A   Clear
11:35 AM 59.4 °F - 38.7 °F 46% 30.21 in 10.0 mi East 12.7 mph - N/A   Clear
11:36 AM 59.4 °F - 38.7 °F 46% 30.21 in 10.0 mi East 10.4 mph - N/A   Clear
11:55 AM 59.9 °F - 37.2 °F 43% 30.21 in 10.0 mi East 8.1 mph - N/A   Clear
12:15 PM 60.6 °F - 37.6 °F 42% 30.22 in 10.0 mi ENE 9.2 mph - N/A   Clear
12:35 PM 61.5 °F - 36.7 °F 40% 30.21 in 10.0 mi East 10.4 mph 17.3 mph N/A   Clear
12:55 PM 62.4 °F - 37.9 °F 40% 30.21 in 10.0 mi East 12.7 mph 17.3 mph N/A   Clear
1:15 PM 64.4 °F - 38.8 °F 39% 30.21 in 10.0 mi ESE 8.1 mph - N/A   Clear
1:35 PM 63.3 °F - 37.9 °F 39% 30.20 in 10.0 mi East 6.9 mph 16.1 mph N/A   Clear
1:55 PM 63.1 °F - 37.4 °F 39% 30.19 in 10.0 mi East 13.8 mph 17.3 mph N/A   Clear
1:56 PM 63.1 °F - 37.4 °F 39% 30.19 in 10.0 mi East 12.7 mph 17.3 mph N/A   Clear
2:15 PM 62.6 °F - 38.1 °F 40% 30.19 in 10.0 mi East 11.5 mph 16.1 mph N/A   Clear
2:35 PM 63.5 °F - 37.4 °F 38% 30.19 in 10.0 mi East 11.5 mph 16.1 mph N/A   Clear
2:36 PM 63.7 °F - 37.2 °F 38% 30.19 in 10.0 mi East 10.4 mph 16.1 mph N/A   Clear
2:55 PM 64.0 °F - 35.1 °F 34% 30.20 in 10.0 mi NE 11.5 mph 17.3 mph N/A   Clear
2:56 PM 63.9 °F - 35.2 °F 35% 30.20 in 10.0 mi ENE 13.8 mph 17.3 mph N/A   Clear
3:15 PM 63.3 °F - 36.9 °F 37% 30.20 in 10.0 mi NE 5.8 mph 9.2 mph N/A   Clear
3:35 PM 62.8 °F - 36.7 °F 38% 30.18 in 10.0 mi East 8.1 mph 17.3 mph N/A   Clear
3:36 PM 62.6 °F - 36.5 °F 38% 30.18 in 10.0 mi East 8.1 mph 17.3 mph N/A   Clear
3:55 PM 63.5 °F - 37.4 °F 38% 30.19 in 10.0 mi East 9.2 mph - N/A   Clear
4:15 PM 65.3 °F - 37.8 °F 36% 30.19 in 10.0 mi ENE 6.9 mph - N/A   Clear
4:35 PM 63.5 °F - 38.3 °F 39% 30.18 in 10.0 mi East 10.4 mph 18.4 mph N/A   Clear
4:55 PM 63.9 °F - 39.2 °F 40% 30.17 in 10.0 mi East 12.7 mph - N/A   Clear
5:15 PM 63.7 °F - 39.6 °F 41% 30.17 in 10.0 mi East 10.4 mph - N/A   Clear
5:16 PM 63.7 °F - 39.9 °F 42% 30.17 in 10.0 mi East 10.4 mph - N/A   Clear
5:35 PM 63.9 °F - 40.8 °F 43% 30.15 in 10.0 mi East 10.4 mph 16.1 mph N/A   Clear
5:55 PM 63.7 °F - 41.4 °F 44% 30.15 in 10.0 mi East 11.5 mph - N/A   Clear
5:56 PM 63.9 °F - 41.5 °F 44% 30.15 in 10.0 mi East 12.7 mph - N/A   Clear
6:15 PM 64.9 °F - 41.2 °F 42% 30.15 in 10.0 mi East 12.7 mph 17.3 mph N/A   Clear
6:16 PM 64.8 °F - 41.2 °F 42% 30.15 in 10.0 mi East 11.5 mph 17.3 mph N/A   Clear
6:35 PM 64.4 °F - 40.3 °F 41% 30.15 in 10.0 mi East 15.0 mph 19.6 mph N/A   Clear
6:36 PM 64.2 °F - 40.5 °F 42% 30.15 in 10.0 mi East 13.8 mph 19.6 mph N/A   Clear
6:55 PM 63.5 °F - 39.7 °F 42% 30.15 in 10.0 mi East 13.8 mph 18.4 mph N/A   Clear
6:56 PM 63.3 °F - 39.6 °F 42% 30.14 in 10.0 mi ENE 12.7 mph 18.4 mph N/A   Clear
7:16 PM 63.0 °F - 38.8 °F 41% 30.14 in 10.0 mi East 13.8 mph 17.3 mph N/A   Clear
7:35 PM 62.2 °F - 38.3 °F 41% 30.14 in 10.0 mi ENE 12.7 mph - N/A   Clear
7:36 PM 62.1 °F - 38.5 °F 42% 30.14 in 10.0 mi ENE 13.8 mph - N/A   Clear
7:55 PM 61.2 °F - 36.9 °F 40% 30.14 in 10.0 mi ENE 8.1 mph - N/A   Clear
7:56 PM 61.0 °F - 37.0 °F 41% 30.14 in 10.0 mi ENE 9.2 mph - N/A   Clear
8:15 PM 60.3 °F - 36.5 °F 41% 30.14 in 10.0 mi ENE 11.5 mph - N/A   Clear
8:35 PM 59.2 °F - 36.3 °F 43% 30.13 in 10.0 mi ENE 10.4 mph - N/A   Clear
8:36 PM 59.2 °F - 36.1 °F 42% 30.13 in 10.0 mi ENE 10.4 mph - N/A   Clear
8:55 PM 59.0 °F - 36.7 °F 43% 30.13 in 10.0 mi ENE 9.2 mph - N/A   Clear
9:15 PM 58.5 °F - 35.6 °F 42% 30.12 in 10.0 mi ENE 10.4 mph 16.1 mph N/A   Clear
9:16 PM 58.3 °F - 35.6 °F 43% 30.12 in 10.0 mi East 9.2 mph 16.1 mph N/A   Clear
9:35 PM 56.8 °F - 36.5 °F 47% 30.13 in 10.0 mi East 8.1 mph - N/A   Clear
9:36 PM 56.7 °F - 36.5 °F 47% 30.13 in 10.0 mi East 8.1 mph - N/A   Clear
9:55 PM 55.0 °F - 37.6 °F 52% 30.13 in 10.0 mi East 8.1 mph - N/A   Clear
10:15 PM 53.6 °F - 38.8 °F 57% 30.13 in 10.0 mi East 4.6 mph - N/A   Clear
10:35 PM 52.5 °F - 39.2 °F 61% 30.12 in 10.0 mi East 6.9 mph - N/A   Clear
10:55 PM 53.6 °F - 38.3 °F 56% 30.13 in 10.0 mi East 6.9 mph - N/A   Clear
11:15 PM 54.3 °F - 36.3 °F 51% 30.13 in 10.0 mi East 9.2 mph - N/A   Clear
11:35 PM 53.6 °F - 36.1 °F 52% 30.13 in 10.0 mi East 8.1 mph - N/A   Clear
11:55 PM 53.2 °F - 35.6 °F 51% 30.14 in 10.0 mi East 8.1 mph - N/A   Clear